User: anonymous   Login
Location: Unspecified
(0.0000°N, 0.0000°E)
Time: 20:31:44
(UTC+00:00)
Language:

Snapshot - Orbit

View from above orbital plane
View from above orbital plane
View from above satellite
View from above satellite

Ground track
Ground track

The orbit data is extracted from the following two-line orbital elements,

1 01314U 65027A   14295.83504199  .00000034  00000-0  10046-3 0  7099
2 01314 090.2936 258.1140 0029391 221.7378 195.3648 12.91735366 82048
Epoch (UTC): 22 October 2014 20:02:27
Eccentricity: 0.0029391
inclination: 90.2936°
perigee height: 1272 km
apogee height: 1317 km
right ascension of ascending node: 258.1140°
argument of perigee: 221.7378°
revolutions per day: 12.91735366
mean anomaly at epoch: 195.3648°
orbit number at epoch: 8204

The dashed part of the orbit path shows where the satellite is in the earth's shadow,  

DLR